Location: Mittersill
(44.1801°N, 71.7142°W)
Time: 03:13:17
(UTC+00:00)

Cosmos 1725 Rocket - Pass Details

Date: 10 September 2024
Orbit: 961 x 990 km, 82.9° (Epoch: 04 October)

Event Time Altitude Azimuth Distance (km) Brightness Sun altitude
Rises 23:43:37 0° 194° (SSW) 3,637 7.0 -7.5°
Reaches altitude 10° 23:46:07 10° 196° (SSW) 2,692 6.4 -8.0°
Maximum altitude 23:52:15 69° 280° (W) 1,027 4.4 -9.0°
Drops below altitude 10° 23:58:26 10° 4° (N) 2,708 6.5 -10.1°
Sets 00:00:58 0° 7° (N) 3,660 7.1 -10.5°
